Regional Weather Roundup
Issued by NWS

Home | Current Version | Previous Version | Graphics & Text | Print | Product List | Glossary Off
Versions: 1 2 3 4 5 6 7 8 9 10 11 12 13 14 15 16 17 18 19 20 21 22 23 24 25 26 27 28 29 30 31 32 33 34 35 36 37 38 39 40 41 42 43 44 45 46 47 48 49 50

000
ASUS43 KTOP 021159
RWRKS

WEATHER ROUNDUP FOR KANSAS
NATIONAL WEATHER SERVICE GOODLAND KS
700 AM CDT MON MAY 02 2016

NOTE:  "FAIR" INDICATES FEW OR NO CLOUDS BELOW 12,000 FEET WITH NO
SIGNIFICANT WEATHER AND/OR OBSTRUCTIONS TO VISIBILITY.

KSZ001>006-013>018-027>032-041>047-021300-
NORTHWEST KANSAS

CITY           SKY/WX    TMP DP  RH WIND       PRES   REMARKS
GOODLAND       CLEAR     29  25  85 W9        30.22S
6HR MIN TEMP:  29; 6HR MAX TEMP:  32;

HAYS           CLEAR     37  28  70 NW6       30.20R
HILL CITY      CLEAR     38  35  89 NW7       30.21R
6HR MIN TEMP:  37; 6HR MAX TEMP:  43;

RUSSELL        CLOUDY    44  42  93 NW7       30.18R
6HR MIN TEMP:  44; 6HR MAX TEMP:  45; 6HR PCP: TRACE;

$$

KSZ061>065-074>080-084>089-021300-
SOUTHWEST KANSAS

CITY           SKY/WX    TMP DP  RH WIND       PRES   REMARKS
DODGE CITY     CLOUDY    38  36  92 NW8       30.20S
6HR MIN TEMP:  35; 6HR MAX TEMP:  41;

ELKHART          N/A     34  29  82 NW7         N/A
GARDEN CITY    CLEAR     32  30  92 NW9       30.21S
6HR MIN TEMP:  32; 6HR MAX TEMP:  43;

GREAT BEND     CLOUDY    45  36  70 NW7       30.19S
LIBERAL        CLEAR     36  30  80 NW12      30.22S WCI  27
$$

KSZ066>073-081>083-090>101-021300-
SOUTHEAST KANSAS

CITY           SKY/WX    TMP DP  RH WIND       PRES   REMARKS
CHANUTE        CLOUDY    49  43  80 NW6       30.11S
6HR MIN TEMP:  49; 6HR MAX TEMP:  52; 6HR PCP: TRACE;

COFFEYVILLE    CLOUDY    51  45  79 N8        30.11R
6HR MIN TEMP:  51; 6HR MAX TEMP:  54;

HUTCHINSON     CLOUDY    47  43  86 NW9       30.16S
6HR MIN TEMP:  47; 6HR MAX TEMP:  47; 6HR PCP: TRACE;

MEDICINE LODGE   N/A     46  42  86 N8        30.17S
NEWTON         CLOUDY    45  39  81 NW9       30.16S
PARSONS        CLOUDY    50  45  83 N8        30.12S
6HR MIN TEMP:  50; 6HR MAX TEMP:  53;

WICHITA INTL   CLOUDY    48  43  82 N13       30.15S
6HR MIN TEMP:  48; 6HR MAX TEMP:  49; 6HR PCP: TRACE;

WICHITA JABRA  CLOUDY    46  43  89 NW7       30.15R
6HR MIN TEMP:  46; 6HR MAX TEMP:  47;

WINFIELD       CLOUDY    47  43  86 N8        30.15S
6HR MIN TEMP:  47; 6HR MAX TEMP:  49;

$$

KSZ007>012-019>026-033>040-048>060-102>105-021300-
NORTHEAST KANSAS

CITY           SKY/WX    TMP DP  RH WIND       PRES   REMARKS
CONCORDIA      CLOUDY    46  43  89 W7        30.17R
6HR MIN TEMP:  45; 6HR MAX TEMP:  46; 6HR PCP: TRACE;

EMPORIA        CLOUDY    47  43  86 NW7       30.13R
6HR MIN TEMP:  47; 6HR MAX TEMP:  48; 6HR PCP: TRACE;

LAWRENCE       CLOUDY    48  44  86 N8        30.11S
6HR MIN TEMP:  48; 6HR MAX TEMP:  49;

MANHATTAN      CLOUDY    49  43  80 NW3       30.14S
6HR MIN TEMP:  49; 6HR MAX TEMP:  49;

OLATHE IND     CLOUDY    47  45  93 NW6       30.11R
6HR MIN TEMP:  47; 6HR MAX TEMP:  49; 6HR PCP: TRACE;

OLATHE EXE     CLOUDY    47  44  90 NW7       30.10R
6HR MIN TEMP:  47; 6HR MAX TEMP:  49;

SALINA         CLOUDY    48  44  86 NW9       30.17R
6HR MIN TEMP:  48; 6HR MAX TEMP:  49;

TOPEKA BILLARD CLOUDY    48  44  86 NW7       30.11F
6HR MIN TEMP:  48; 6HR MAX TEMP:  49;

TOPEKA FORBES  CLOUDY    49  44  83 NW7       30.11S
6HR MIN TEMP:  48; 6HR MAX TEMP:  50;

$$




USA.gov is the U.S. government's official web portal to all federal, state and local government web resources and services.